모두
Allendorf/Eder Airport (Allendorf) EDFQ 기상
There is no TAF data available at EDFQ or any nearby airports.
There is no METAR data available at EDFQ. Showing METAR data for ETHF (22 mi E).
최근 FRZ METAR 이력(EDFQ에 대한 데이터 없음)
| Date | Time (CEST) | Flight Rules | Wind Dir. | Speed | Type | Height AGL (ft) | Visibility | Temp (°C) | Temp (°F) | Dew Point (°C) | Dew Point (°F) | Rel. Humid. | Pressure | Density Altitude | Remarks |
|---|---|---|---|---|---|---|---|---|---|---|---|---|---|---|---|
| gap in available data | |||||||||||||||
| 03-5월 | 05:20 | IFR | 300° | 2 kt | 3600 meters |
7° | 44° | 6° | 42° | 93% | 1014 mb | -417 ft | |||
| 03-5월 | 04:20 | VFR | 300° | 2 kt | 10000 meters | 8° | 46° | 6° | 42° | 87% | 1014 mb | -297 ft | |||
| 03-5월 | 03:20 | VFR | 290° | 2 kt | 10000 meters | 8° | 46° | 7° | 44° | 93% | 1014 mb | -297 ft | |||
| 03-5월 | 02:20 | VFR | 300° | 2 kt | 10000 meters | 9° | 48° | 7° | 44° | 87% | 1015 mb | -207 ft | |||
| 03-5월 | 01:20 | VFR | 300° | 3 kt | 10000 meters | 10° | 50° | 8° | 46° | 87% | 1015 mb | -87 ft | |||
| 03-5월 | 00:20 | VFR | 330° | 1 kt | 10000 meters | 11° | 51° | 8° | 46° | 82% | 1015 mb | 33 ft | |||
| 02-5월 | 23:20 | VFR | 300° | 3 kt | 10000 meters | 12° | 53° | 9° | 48° | 82% | 1015 mb | 153 ft | |||
| 02-5월 | 22:20 | VFR | Calm | 10000 meters | 13° | 55° | 10° | 50° | 82% | 1015 mb | 273 ft | ||||
| 02-5월 | 21:20 | VFR | 340° | 1 kt | 10000 meters | 16° | 60° | 8° | 46° | 59% | 1015 mb | 633 ft | |||
| 02-5월 | 20:20 | VFR | 210° | 3 kt | 10000 meters | 18° | 64° | 10° | 50° | 59% | 1015 mb | 873 ft | |||
| 02-5월 | 19:20 | VFR | 200° | 6 kt | 10000 meters | 22° | 71° | 8° | 46° | 41% | 1015 mb | 1,353 ft | |||
| 02-5월 | 18:20 | VFR | 180° | 9 kt | 10000 meters | 24° | 75° | 6° | 42° | 31% | 1016 mb | 1,564 ft | |||
| 02-5월 | 17:20 | VFR | 180° | 10 kt | 10000 meters | 25° | 77° | 4° | 39° | 26% | 1016 mb | 1,684 ft | |||
| 02-5월 | 16:20 | VFR | 200° | 8 kt | 10000 meters | 25° | 77° | 5° | 41° | 28% | 1017 mb | 1,654 ft | |||
| 02-5월 | 15:20 | VFR | 190° | 9 kt | 10000 meters | 25° | 77° | 5° | 41° | 28% | 1018 mb | 1,624 ft | |||
| 02-5월 | 14:20 | VFR | 190° | 8 kt | 10000 meters | 24° | 75° | 5° | 41° | 29% | 1018 mb | 1,504 ft | |||
| 02-5월 | 13:20 | VFR | 170° | 9 kt | 10000 meters | 24° | 75° | 6° | 42° | 31% | 1019 mb | 1,475 ft | |||
| 02-5월 | 12:20 | VFR | 170° | 7 kt | 10000 meters | 22° | 71° | 7° | 44° | 38% | 1020 mb | 1,205 ft | |||
| 02-5월 | 11:20 | VFR | 200° | 9 kt | 10000 meters | 21° | 69° | 7° | 44° | 40% | 1021 mb | 1,056 ft | |||
| 02-5월 | 10:20 | VFR | 150° | 5 kt | 10000 meters | 18° | 64° | 7° | 44° | 49% | 1021 mb | 696 ft | |||
| 02-5월 | 09:20 | VFR | Variable | 2 kt | 10000 meters | 14° | 57° | 7° | 44° | 63% | 1022 mb | 186 ft | |||
| 02-5월 | 08:20 | VFR | Calm | 10000 meters | 10° | 50° | 5° | 41° | 71% | 1022 mb | -294 ft | ||||
| 02-5월 | 07:20 | VFR | Calm | 10000 meters |
6° | 42° | 3° | 37° | 81% | 1022 mb | -774 ft | ||||
| 02-5월 | 06:20 | BCAT1 | Calm | 800 meters | 3° | 37° | 2° | 35° | 93% | 1022 mb | -1,134 ft | ||||
로그인
| 귀하의 브라우저는 지원되지 않습니다.. 브라우저를 업그레이드하세요 |
